Regional Weather Roundup
Issued by NWS Wakefield, VA

Home | Current Version | Previous Version | Graphics & Text | Print | Product List | Glossary On
Versions: 1 2 3 4 5 6 7 8 9 10 11 12 13 14 15 16 17 18 19 20 21 22 23 24 25 26 27 28 29 30 31 32 33 34 35 36 37 38 39 40 41 42 43 44 45 46 47 48 49 50
000
ASUS41 KAKQ 041115
RWRAKQ

REGIONAL WEATHER ROUNDUP
NATIONAL WEATHER SERVICE WAKEFIELD VA
700 AM EDT MON MAY 04 2015

Note: "fair" indicates few or no clouds below 12,000 feet with no
significant weather and/or obstructions to visibility. * = Denotes
station may not report precipitation (e.g., rain,snow,etc.),
thunder or fog.

VAZ042-051-052>054-056-041200-
NORTHERN VIRGINIA

CITY           SKY/WX    TMP DP  RH WIND       PRES   REMARKS
WASH NATIONAL  PTCLDY    59  51  75 SW6       30.22R
DULLES         PTCLDY    55  45  68 CALM      30.22R
FORT BELVOIR   PTCLDY    49  48  96 NW3       30.22R
QUANTICO       PTCLDY    58  49  72 CALM      30.23R
FREDERICKSBRG* PTCLDY    53  52  97 CALM      30.22S
STAFFORD*      PTCLDY    48  32  54 CALM      30.26R
WARRENTON      CLEAR     49  49  99 CALM      30.22R
CULPEPER*      NOT AVBL
MANASSAS*      CLEAR     48  48 100 CALM      30.22R
LEESBURG*      CLEAR     50  50 100 CALM      30.23R
WINCHESTER     CLEAR     50  41  71 SW3       30.21R
FRONT ROYAL*   FAIR      54  43  66 S6        30.21R
LURAY*         FAIR      50  46  87 CALM      30.24R
$$

VAZ048-049-060>072-079>083-041200-
CENTRAL AND SOUTH CENTRAL VIRGINIA

CITY           SKY/WX    TMP DP  RH WIND       PRES   REMARKS
RICHMOND       PTCLDY    54  48  80 S3        30.26R
CHESTERFIELD*  FAIR      55  39  54 CALM      30.27R
PETERSBURG*    CLEAR     51  49  94 CALM      30.27R
HANOVER        PTCLDY    51  48  89 CALM      30.27R
TAPPAHANNOCK*  PTCLDY    57  45  63 SW5       30.25R
QUINTON*       FAIR      49  47  93 CALM      30.26R
CHARLOTTSVILLE CLEAR     49  46  90 CALM      30.23R
GORDONSVILLE*  FAIR      48  46  93 W3        30.23R
ORANGE*        CLEAR     50  46  87 CALM      30.25R
LOUISA*        CLEAR     54  46  76 S3        30.22S
BUMPASS*       FAIR      52  47  81 MISG      30.24R
FARMVILLE*     CLEAR     50  50 100 CALM      30.24R
CREWE*         FAIR      51  50  94 CALM      30.26R
FORT PICKETT*  FAIR      51  49  93 SW6       30.27R
CHASE CITY*    FAIR      53  53 100 CALM      30.26R
CLARKSVILLE*   FAIR      54  52  94 CALM      30.26R
SOUTH HILL*    CLEAR     47  46  95 CALM      30.32S
LAWRENCEVILLE* FAIR      50  48  93 CALM      30.27R
EMPORIA*       CLEAR     46  46 100 CALM      30.29R
$$

VAZ088>098-041200-
SOUTHEAST VIRGINIA

CITY           SKY/WX    TMP DP  RH WIND       PRES   REMARKS
NORFOLK        CLEAR     60  47  61 SW6       30.27R
VIRGINIA BEACH PTCLDY    59  49  69 W7        30.27R
NORFOLK NAVAL  PTCLDY    65  49  56 W6        30.29R
WEST POINT*    CLEAR     59  47  65 W3        30.28R
SALUDA*        FAIR      59  47  64 W5        30.26R
NEWPORT NEWS   CLEAR     60  48  64 W6        30.28R
LANGLEY AFB    CLEAR     57  48  72 W6        30.26R
FORT EUSTIS    CLEAR     60  47  61 VRB2      30.26R
WILLIAMSBURG*  CLEAR     61  48  63 SW5       30.28R
HR EXEC AP*    FAIR      48  46  93 CALM      30.30R
FRANKLIN*      CLEAR     49  48  95 CALM      30.29R
WAKEFIELD      CLEAR     50  48  93 CALM      30.28R
$$

VAZ020-022-025-037-045-041200-
WEST CENTRAL AND SOUTHWEST VIRGINIA

CITY           SKY/WX    TMP DP  RH WIND       PRES   REMARKS
STAUNTON*      CLEAR     44  42  90 CALM      30.26R
WAYNESBORO*    FAIR      48  43  84 CALM      30.25R
HOT SPRINGS VA CLEAR     55  43  64 SW8       30.29R
LYNCHBURG      CLEAR     49  46  90 CALM      30.26R
DANVILLE       CLEAR     50  47  89 CALM      30.26R
SOUTH BOSTON*  FAIR      46  45  95 CALM      30.26R
MARTINSVILLE   CLEAR     46  46 100 CALM      30.28R
ROANOKE        PTCLDY    50  46  86 CALM      30.27R
BLACKSBURG     PTCLDY    46  44  93 CALM      30.30R
DUBLIN*        CLEAR     48  47  95 CALM      30.29R
MARION*        PTCLDY    46  44  91 CALM      30.32R
HILLSVILLE*    CLEAR     55  46  73 S3        30.29R
RICHLANDS*     FAIR      60  37  42 CALM      30.28R
WISE*          CLEAR     54  41  62 W5        30.29R
ABINGDON*      CLEAR     53  47  78 CALM      30.28R
$$

MDZ021>025-VAZ099-100-041200-
SOUTHERN MARYLAND AND THE DELMARVA PENINSULA

CITY           SKY/WX    TMP DP  RH WIND       PRES   REMARKS
PATUXENT RIVER PTCLDY    59  47  64 SW8       30.23R
BAY BRIDGE APT   N/A    N/A N/A N/A CALM      30.22R
LEONARDTOWN    CLEAR     52  45  76 CALM      30.25R
DOVER          SUNNY     56  52  86 S3        30.18R
GEORGETOWN     MOSUNNY   53  49  86 SW7       30.24R
EASTON         CLEAR     55  50  82 CALM      30.26R
CAMBRIDGE      CLEAR     52  50  93 CALM      30.23R
SALISBURY      MOSUNNY   51  48  89 CALM      30.24R
OCEAN CITY     MOSUNNY   58  50  75 W6        30.24R
WALLOPS ISLAND PTCLDY    61  51  70 W9        30.25R
ACCOMACK*      CLEAR     59  50  72 W7        30.26R
$$

NCZ012>017-030>032-041200-
NORTH CENTRAL AND EASTERN NORTH CAROLINA

CITY           SKY/WX    TMP DP  RH WIND       PRES   REMARKS
ROANOKE RAPIDS FAIR      46  46 100 CALM      30.28R
RALEIGH        PTCLDY    54  52  93 CALM      30.28R
ELIZABETH CITY CLEAR     54  49  83 CALM      30.29R
AHOSKIE*       CLOUDY    53  49  87 CALM      30.29R
EDENTON*       PTCLDY    52  50  92 CALM      30.29R
CURRITUCK*     CLEAR     57  47  69 SW3       30.29R
KILL DEVIL HLS CLEAR     61  54  78 W6        30.28R
MANTEO         CLEAR     60  53  77 NW3       30.29R
CAPE HATTERAS  CLEAR     55  55 100 NW3       30.30R
TARBORO*       PTSUNNY   52  50  94 CALM      30.29R
GOLDSBORO      CLOUDY    53  51  91 CALM      30.27R
WASHINGTON       N/A     53  50  90 CALM      30.29R
GREENVILLE     MOCLDY    52  52 100 CALM      30.29R
NEW BERN       CLEAR     51  48  89 CALM      30.31R
WILMINGTON     CLEAR     52  50  93 CALM      30.30R
$$

VAZ048-041200-
ELSEWHERE

CITY           SKY/WX    TMP DP  RH WIND       PRES   REMARKS
HARRISBURG PA  CLEAR     53  48  83 CALM      30.20R
BALTIMORE      PTCLDY    51  45  79 CALM      30.21R
ANNAPOLIS      CLEAR     57  52  83 CALM      30.21R
ANDREWS AFB    CLEAR     54  47  75 S5        30.21R
PHILADELPHIA   MOSUNNY   57  51  80 CALM      30.21R
HENDERSON NC   CLEAR     54  52  94 S5        30.27R
GREENSBORO     PTCLDY    56  52  86 SW3       30.26R
ROCKY MOUNT    MOCLDY    52  49  89 CALM      30.28R
$$

VAZ100-041200-
MARINE

STATION/POSITION TIME  TEMP    WIND        PRES    WAVE   SWELL
                       AIR SEA DIR/SP/G            HT/PER HT/PER
                 (UTC) (F)     (DEG/KT/KT) (MB)    (FT/S) (FT/S)
BRANDYWINE LGT   1000   60 54  230/  8/  9 1023.0R
CAPE MAY NJ      1000   57 58  170/  3/  4 1022.6R
LEWES DE         1000   60 54  220/  3/  7 1022.8R
15NM E FENWICK I 1050   54 51              1023.7R   4/11
OCEAN-CITY-INLET 1000   57 58  250/  4/  5 1023.1R
WACHAPREAGUE VA  1000   61 64  260/  4/  7 1023.7R
THOMAS POINT MD  1100   62 59  190/  7/  7 1023.8R
GOOSES REEF MD   1100   61 59                N/A     1
COVE POINT MD    1000   63     270/ 13/ 15 1023.5R
SOLOMONS ISLAND  1000      60                N/A
BISHOPS HEAD MD  1000   62 62  260/  4/  5 1023.0R
PINEY POINT MD   1000          270/  5/  6   N/A
CAMBRIDGE MD     1000   57 62  180/  3/  4 1023.0R
LEWISETTA VA     1000   61 63              1023.1R
RAPPAHANNOCK LGT 1000          200/  7/  8 1024.4R
YORK RVR RNG VA  1000   62     260/  9/ 11 1023.4R
YORKTOWN VA      1000   63 60  250/ 10/ 14 1023.7R
JAMESTOWN VA     1100   58 63  280/  4/  6 1024.2R
DOMINION TERM VA 1000   62     320/  4/  5 1024.4R
KIPTOPEKE VA     1000      63   30/  2/  3   N/A
CHES BAY BRIDGE  1000   62 59  230/ 10/ 11 1023.8R
CAPE HENRY VA    1000   62     240/ 10/ 13 1023.0R
CHESAPEAKE LGHT  1000   60     250/ 13/ 13 1024.9R
WILLOUBY STN VA  1000   62     260/  6/  7 1024.9R
S CRANEY ISL VA  1000          230/  5/  7 1024.2R
CAPE HENRY BUOY  1028      57                N/A     3/11   2/11
1ST LANDING BUOY 1100      58                N/A     2/ 4
CAPE CHARLES BUO 1026      55                N/A     3/10   3/10
OFFSHORE WE BUOY 1011      51                N/A     3/11   3/11
64NM E OF VA BCH 1050   60 60  260/  8/ 12 1024.8R   4/10   3/10
DUCK PIER NC     1000   62 55  250/  5/  6 1023.6R
44056 DUCK FRF   1011      56                N/A     3/13   2/13
OREGON INLET NC  1000   61 62  260/  3/  4 1024.6R
HATTERAS NC      1000   63 62  220/  2/  4 1024.5R
DIAMOND SHLS NC  1050   65     320/  6/  6 1025.7R   5/10   5/10
CAPE LOOKOUT NC  1100   67     290/  3/  3 1025.6R
$$



USA.gov is the U.S. government's official web portal to all federal, state and local government web resources and services.